GAOFEN 3 DEB, 42678

Orbit data source: Space-Track

GAOFEN 3 DEB, 42678 is space debris in SSO originally from a launch on Tue, 09 Aug 2016 UTC launched from the Taiyaun Space Center, China (TSC). Debris objects in space refer to the collection of defunct objects orbiting the Earth. Examples of debris include non-operational satellites, rocket bodies, and fragments generated from explosions, collisions, or faulty payload assembly.

Loading next visibility...
Identifier
42678, 2016-049C
Orbit
SSO
Country
Flag of CNCN / PRC
Related business
Manufacturer
Unknown
Mission
Spacecraft
Bus & Motor
Unknown
Mass
Unknown
Launch date (UTC)
2016-08-09 (10 years ago)
Launch vehicle
Unknown
Launch site
Taiyaun Space Center, China (TSC)
Object type
Payload
Rocket body
Debris
Shape & HBR
Unknown shape, 0.1 m
Radar Cross Section
Small (<0.1 m²)

Expand to show TLE details & history
Last TLE update: 3 days ago

TLE from 3 days ago
0 GAOFEN 3 DEB
1 42678U 16049C   26170.29499805  .00000124  00000-0  46066-4 0  9992
2 42678  98.3147 181.7524 0008322 354.9591   5.1517 14.46765761514220
Epoch: 2026-06-19T07:04Z
TLE epoch observation values (Epoch: 2026-06-19T07:04:47.831Z)
Latitude
0.00004°
Longitude
168.02707°
Altitude
733.297 km
Speed
7.492 km/s
True Right ascension
12h 07m 00s
True Declination
0° 00' 00"
Sunlit
Object was in daylight at epoch
Visualization orbit readout
Latitude
Unknown
Longitude
Unknown
Altitude
Unknown
Speed
Unknown
Apparent Right ascension
Unknown
Apparent Declination
Unknown
Sunlit
N/A
Visualization observer readout
Local Sidereal Time
23:20:35
Azimuth
Unknown
Elevation
Unknown
Doppler factor
Unknown
Orbital elements
Apogee altitude
739.254 km
Perigee altitude
727.418 km
Semi-major axis
7,111.473 km
Eccentricity
0.00083
Inclination
98.3147°
RAAN
181.7524°
Arg. of periapsis
354.9591°
True anomaly
5.16027°
Mean anomaly
5.1517°
Eccentric anomaly
5.15599°
Mean motion
3.61913 °/min
Orbital period
99.47 mins
BSTAR
0.000046066
Loading maneuver chart data...
Computing Atmospheric mass density...
Loading historical data...
Loading historical data...
Loading historical data...
Loading historical data...
Loading historical data...
Loading historical data...
Loading historical data...
Other satellites on launch #49 in the year 2016 (2016-08-09 UTC)

Documentation

Showing up to 5 results
|